CDT,Max TemperatureF,Mean TemperatureF,Min TemperatureF,Max Dew PointF,MeanDew PointF,Min DewpointF,Max Humidity, Mean Humidity, Min Humidity, Max Sea Level PressureIn, Mean Sea Level PressureIn, Min Sea Level PressureIn, Max VisibilityMiles, Mean VisibilityMiles, Min VisibilityMiles, Max Wind SpeedMPH, Mean Wind SpeedMPH, Max Gust SpeedMPH,PrecipitationIn, CloudCover, Events, WindDirDegrees
2013-5-1,46,39,32,39,32,28,100,86,71,30.50,30.25,29.95,10,8,3,29,21,37,0.61,8,Thunderstorm,11
2013-5-2,54,45,36,30,27,21,75,53,30,30.62,30.53,30.43,10,10,10,24,15,30,0.00,3,,349
2013-5-3,55,42,28,28,24,16,78,52,26,30.43,30.24,30.09,10,10,10,21,12,29,0.00,0,,351
2013-5-4,52,43,34,36,28,21,76,61,46,30.20,30.11,30.07,10,10,10,28,19,35,0.00,6,,347
2013-5-5,63,52,41,43,38,34,83,65,46,30.22,30.17,30.11,10,10,10,16,11,17,0.00,5,,11
2013-5-6,70,52,34,46,38,32,100,64,28,30.17,30.11,30.04,10,8,0,9,5,,0.00,1,,130
2013-5-7,66,58,50,55,50,36,93,77,61,30.06,30.01,29.92,10,10,5,17,10,20,0.07,6,,142
2013-5-8,70,61,52,57,54,48,100,83,66,29.97,29.94,29.92,10,8,2,14,7,,0.22,5,Thunderstorm,138
2013-5-9,63,57,50,54,51,48,96,84,72,30.09,30.01,29.92,10,9,3,22,13,30,0.00,6,,2
2013-5-10,73,59,45,52,43,36,100,63,25,30.15,30.11,30.05,10,9,5,15,6,22,0.00,2,,332
2013-5-11,64,54,43,43,31,25,71,47,22,30.35,30.27,30.12,10,10,10,27,15,35,0.00,0,,1
2013-5-12,70,55,39,43,35,27,66,51,36,30.27,30.17,30.07,10,10,10,22,11,28,0.00,1,,139
2013-5-13,90,68,45,54,47,41,92,58,23,30.09,29.98,29.89,10,10,10,21,13,29,0.00,0,,186
2013-5-14,99,78,57,54,49,43,72,44,15,29.89,29.79,29.70,10,10,9,15,11,24,0.00,0,Thunderstorm,211
2013-5-15,84,71,57,54,45,39,57,41,25,29.92,29.86,29.81,10,10,5,29,16,35,0.00,1,,65
2013-5-16,82,69,55,61,56,46,93,66,39,29.88,29.84,29.77,10,9,4,22,11,29,0.06,1,Thunderstorm,140
2013-5-17,86,70,54,63,57,52,93,67,40,29.90,29.85,29.80,10,10,10,20,11,25,0.00,0,,172
2013-5-18,81,72,63,68,63,54,93,80,67,29.86,29.78,29.59,10,8,3,18,13,23,0.02,5,Thunderstorm,143
2013-5-19,75,66,57,61,55,50,93,77,61,29.74,29.64,29.55,10,10,6,17,10,21,0.27,5,Thunderstorm,313
2013-5-20,70,63,55,55,50,43,86,63,40,29.76,29.67,29.60,10,10,5,25,17,32,0.03,7,,271
2013-5-21,63,56,48,48,43,39,83,65,46,29.85,29.79,29.75,10,10,10,31,18,38,0.00,5,,295
2013-5-22,68,57,46,48,45,41,86,69,52,30.07,29.92,29.82,10,10,7,20,15,27,0.00,6,,334
2013-5-23,70,59,48,50,47,45,86,67,47,30.21,30.17,30.08,10,10,5,21,13,24,0.00,4,,59
2013-5-24,75,65,54,63,54,46,83,68,53,30.21,30.11,29.98,10,10,7,30,20,36,0.01,5,Thunderstorm,154
2013-5-25,86,73,59,64,61,55,93,71,48,30.13,29.97,29.84,10,10,3,31,17,37,1.61,4,Thunderstorm,145
2013-5-26,84,74,64,70,65,61,93,74,55,29.88,29.82,29.71,10,10,7,29,18,40,0.00,2,,154
2013-5-27,81,71,61,66,62,55,93,76,58,29.81,29.74,29.62,10,10,7,25,15,33,0.64,6,Thunderstorm,92
2013-5-28,79,68,57,64,60,54,93,75,56,29.76,29.71,29.62,10,9,5,17,11,22,0.00,1,,69
2013-5-29,81,69,57,70,62,55,100,87,74,29.68,29.59,29.43,10,9,3,29,14,35,1.84,5,Thunderstorm,121
2013-5-30,77,67,57,57,52,43,93,65,36,29.66,29.58,29.52,10,10,10,21,14,28,0.00,1,,224
2013-5-31,77,65,52,46,44,39,77,52,27,29.80,29.72,29.67,10,10,10,30,18,38,0.00,0,,283